Regional Weather Roundup
Issued by NWS

Home | Current Version | Previous Version | Graphics & Text | Print | Product List | Glossary On
Versions: 1 2 3 4 5 6 7 8 9 10 11 12 13 14 15 16 17 18 19 20 21 22 23 24 25 26 27 28 29 30 31 32 33 34 35 36 37 38 39 40 41 42 43 44 45 46 47 48 49 50
000
ASUS43 KLOT 222112
RWRIL

ILLINOIS REGIONAL WEATHER ROUNDUP
NATIONAL WEATHER SERVICE CHICAGO/ROMEOVILLE IL
300 PM CST SUN JAN 22 2017

NOTE: "FAIR" INDICATES FEW OR NO CLOUDS BELOW 12,000 FEET WITH NO
SIGNIFICANT WEATHER AND/OR OBSTRUCTIONS TO VISIBILITY.

* THESE STATIONS ARE NOT UNDER NWS QUALITY CONTROL. THEY ALSO MAY NOT
  REPORT WEATHER SUCH AS PRECIPITATION OR FOG.

ILZ001-002-007-009-015-016-024-222200-
NORTHWEST ILLINOIS

CITY           SKY/WX    TMP DP  RH WIND       PRES   REMARKS
MOLINE         CLOUDY    43  35  73 NW7       29.65R
STERLING*      CLOUDY    40  37  89 N6        29.65R
SAVANNA*       PTSUNNY   42  38  84 NW5       29.66R
$$

ILZ003-004-008-010-011-017-018-222200-
NORTH CENTRAL ILLINOIS

CITY           SKY/WX    TMP DP  RH WIND       PRES   REMARKS
ROCKFORD       CLOUDY    44  35  70 NW9       29.65R
FREEPORT*      CLOUDY    40  39  95 NW9       29.66S
ROCHELLE*      CLOUDY    39  37  94 N9        29.64R FOG     WCI  33
DE KALB*       CLOUDY    38  38  99 N10       29.63R FOG     WCI  31
PERU*          CLOUDY    40  35  83 N9        29.63R
$$

ILZ005-006-012>014-019>023-222200-
NORTHEAST ILLINOIS

CITY           SKY/WX    TMP DP  RH WIND       PRES   REMARKS
CHICAGO-OHARE  CLOUDY    45  39  79 N9        29.61R
CHICAGO-MIDWAY CLOUDY    46  38  73 N7        29.61R
AURORA         CLOUDY    40  37  89 N12       29.62R
LANSING*       CLOUDY    41  41 100 NE7       29.61R FOG
JOLIET*        CLOUDY    47  43  84 N9        29.61R
WAUKEGAN       CLOUDY    43  38  82 N7        29.62R
DUPAGE AIRPORT LGT RAIN  42  38  85 N8        29.61R
KANKAKEE*      CLOUDY    44  42  93 N10       29.59S
WHEELING       CLOUDY    44  38  79 N8        29.62S
MORRIS*        CLOUDY    43  42  95 N6        29.60S
ROMEOVILLE*    CLOUDY    45  43  93 N10       29.60S
NORTHERLY ISL    N/A     39  38  96 N7          N/A  WCI  34
$$

LMZ740>746-222200-
SOUTHERN LAKE MICHIGAN

STATION/POSITION SKY/WX   TEMP    WIND        PRES    VSBY  WAVE
                          AIR SEA DIR/SP/G                  HT/PER
                          (F)     (DEG/KT/KT) (MB)    (MI)  (FT/S)
HARRISON CRIB              38     360/ 11/ 11   N/A
BURNHAM HARBOR             39     360/  7/  7   N/A
CALUMET HARBOR             38     350/  6/  9 1002.5R
BURNS HARBOR               36      40/  5/  5 1003.7R
MICHIGAN CITY              36     360/  5/  5   N/A
$$

ILZ025>027-034>036-040-047-049-050-058-095>099-222200-
WEST-CENTRAL ILLINOIS

CITY           SKY/WX    TMP DP  RH WIND       PRES   REMARKS
QUINCY         CLOUDY    42  38  85 N18       29.63R
GALESBURG*     CLOUDY    40  37  89 N10       29.64R
MACOMB*        CLOUDY    41  39  94 N17G24    29.64R FOG
JACKSONVILLE*  CLOUDY    48  41  75 N12       29.58R
PITTSFIELD*    CLOUDY    49  40  72 N16       29.60R
$$

ILZ028>032-037-038-041>044-048-051>054-059>061-222200-
CENTRAL ILLINOIS

CITY           SKY/WX    TMP DP  RH WIND       PRES   REMARKS
PONTIAC        CLOUDY    44  44 100 N14       29.61R
BLOOMINGTON    CLOUDY    43  40  89 N18       29.58R
DECATUR        CLOUDY    49  47  93 N13       29.54R
PEORIA         CLOUDY    45  36  70 N14G23    29.60R
LACON*         CLOUDY    43  36  77 N9        29.62R
LINCOLN*       CLOUDY    48  44  83 N13       29.58R
SPRINGFIELD    CLOUDY    51  42  71 N17G24    29.56R
TAYLORVILLE    CLOUDY    51  47  87 N20       29.54R
$$

ILZ033-039-045-046-055>057-062-063-222200-
EAST-CENTRAL ILLINOIS

CITY           SKY/WX    TMP DP  RH WIND       PRES   REMARKS
CHAMPAIGN      CLOUDY    47  45  93 N20       29.53R FOG
RANTOUL*       CLOUDY    47  46  97 N15       29.55R FOG
MATTOON        CLOUDY    54  51  90 N17       29.49R
PARIS*         CLOUDY    60  54  81 N9G17     29.49S
$$

ILZ079-100>102-222200-
SOUTHWEST ILLINOIS

CITY           SKY/WX    TMP DP  RH WIND       PRES   REMARKS
ALTON          CLOUDY    50  46  87 N12G17    29.52R FOG
BELLEVILLE     CLOUDY    53  51  92 N17       29.48R
CAHOKIA*       CLOUDY    52  45  77 N13       29.51R
SPARTA*        CLOUDY    55  50  82 N13       29.46S
$$

ILZ064>066-069>071-074>076-080>082-084>086-088>090-092>094-222200-
SOUTH-CENTRAL ILLINOIS

CITY           SKY/WX    TMP DP  RH WIND       PRES   REMARKS
CARBONDALE     CLOUDY    63  53  70 N14       29.40S
CAIRO*         CLOUDY    61  53  74 N15       29.34F
EFFINGHAM*     CLOUDY    60  56  85 N13       29.48S
MARION         PTSUNNY   64  61  88 NE7       29.40F
MT. VERNON     MOSUNNY   62  51  67 NE10      29.43R
CENTRALIA*     PTSUNNY   62  54  76 NE13      29.44R
SALEM*         CLOUDY    61  53  77 N14       29.45R
METROPOLIS*    LGT RAIN  61  53  74 N8        29.34F
$$

ILZ067-068-072-073-078-083-087-091-222200-
SOUTHEAST ILLINOIS

CITY           SKY/WX    TMP DP  RH WIND       PRES   REMARKS
LAWRENCEVILLE  MOSUNNY   61  53  75 NE14      29.43S
FLORA*         PTSUNNY   62  51  66 N14G20    29.44S
FAIRFIELD*     CLOUDY    62  52  70 N9        29.41S
HARRISBURG*    PTSUNNY   61  53  74 N13       29.39F
ROBINSON*      PTSUNNY   60  51  71 NE12      29.46R
CARMI*         CLOUDY    61  53  76 N12       29.39F
$$

ABBREVIATIONS USED IN REMARKS
   TC - TEMPERATURE IN CELSIUS
  WCI - WIND CHILL INDEX
   HX - HEAT INDEX
  VSB - VISIBILITY
$$




USA.gov is the U.S. government's official web portal to all federal, state and local government web resources and services.